Weather History for Eastsound, WA

Change the Weather History Date:

Thursday, October 27, 2011

  Actual Average (KBLI) Record (KBLI)
Temperature  
Mean Temperature 40 °F 47 °F  
Max Temperature 46 °F 55 °F 65 °F (1952)
Min Temperature 35 °F 40 °F 27 °F (1970)
Degree Days  
Heating Degree Days 24 18  
Month to date heating degree days 399  
Cooling Degree Days 0 0  
Month to date cooling degree days 0  
Year to date cooling degree days 42  
Moisture  
Dew Point 40 °F    
Average Humidity 94    
Maximum Humidity 100    
Minimum Humidity 81    
Precipitation  
Precipitation 0.00 in 0.15 in 1.75 in (1985)
Month to date precipitation 3.03  
Year to date precipitation 25.16  
Sea Level Pressure  
Sea Level Pressure 30.30 in    
Wind  
Wind Speed 1 mph (NNW)    
Max Wind Speed 5 mph    
Max Gust Speed -    
Visibility 9 miles    
Events      
T = Trace of Precipitation, MM = Missing Value Source: NWS Daily Summary

Daily Weather History Graph

Daily Weather History Graph

Search for Another Location

Airport:

Trip Planner

Search our weather history database for the weather conditions in past years. The results will help you decide how hot, cold, wet, or windy it might be!

Date:

Astronomy

Oct. 27, 2011 Rise Set
Actual Time 7:50 AM PDT 6:00 PM PDT
Civil Twilight 7:17 AM PDT 6:32 PM PDT
Nautical Twilight 6:40 AM PDT 7:09 PM PDT
Astronomical Twilight 6:04 AM PDT 7:45 PM PDT
Moon 9:11 AM PDT (10/27) 6:21 PM PDT (10/27)
Length of Visible Light 11h 15m
Length of Day
10h 10m
New Moon, 1% of the Moon is Illuminated
Oct 27
New Moon
Nov 2
First Quarter
Nov 10
Full
Nov 18
Last Quarter
Nov 24
New

Hourly Weather History & Observations

Time (PDT) Temp. Windchill Dew Point Humidity Pressure Visibility Wind Dir Wind Speed Gust Speed Precip Events Conditions
12:35 AM 41.0 °F - 41.0 °F 100% 30.29 in 10.0 mi Calm Calm - N/A   Mostly Cloudy
12:55 AM 41.0 °F 39.0 °F 39.2 °F 93% 30.30 in 10.0 mi SSW 3.5 mph - N/A   Partly Cloudy
1:15 AM 39.2 °F 35.9 °F 39.2 °F 100% 30.31 in 9.0 mi SSW 4.6 mph - N/A   Clear
1:35 AM 41.0 °F - 39.2 °F 93% 30.31 in 10.0 mi Calm Calm - N/A   Clear
1:55 AM 39.2 °F - 39.2 °F 100% 30.31 in 10.0 mi Calm Calm - N/A   Clear
2:15 AM 39.2 °F - 39.2 °F 100% 30.31 in 10.0 mi Calm Calm - N/A   Clear
2:35 AM 39.2 °F - 39.2 °F 100% 30.31 in 10.0 mi Calm Calm - N/A   Clear
2:55 AM 37.4 °F - 37.4 °F 100% 30.31 in 10.0 mi Calm Calm - N/A   Clear
3:35 AM 37.4 °F 34.9 °F 37.4 °F 100% 30.30 in 10.0 mi South 3.5 mph - N/A   Clear
4:15 AM 37.4 °F - 37.4 °F 100% 30.30 in 10.0 mi Calm Calm - N/A   Clear
4:35 AM 35.6 °F - 35.6 °F 100% 30.30 in 8.0 mi Calm Calm - N/A   Clear
4:55 AM 37.4 °F - 37.4 °F 100% 30.31 in 10.0 mi Calm Calm - N/A   Clear
5:15 AM 35.6 °F - 35.6 °F 100% 30.31 in 10.0 mi Calm Calm - N/A   Scattered Clouds
5:35 AM 37.4 °F - 35.6 °F 93% 30.31 in 8.0 mi Calm Calm - N/A   Partly Cloudy
5:55 AM 35.6 °F - 35.6 °F 100% 30.31 in 8.0 mi Calm Calm - N/A   Clear
6:15 AM 37.4 °F - 37.4 °F 100% 30.31 in 10.0 mi North - - N/A   Clear
6:35 AM 37.4 °F - 37.4 °F 100% 30.30 in 8.0 mi Calm Calm - N/A   Clear
6:55 AM 37.4 °F - 37.4 °F 100% 30.30 in 3.0 mi Calm Calm - N/A   Clear
7:35 AM 37.4 °F 34.9 °F 37.4 °F 100% 30.31 in 8.0 mi SSW 3.5 mph - N/A   Clear
7:55 AM 35.6 °F - 35.6 °F 100% 30.31 in 3.0 mi Calm Calm - N/A   Clear
8:15 AM 35.6 °F - 35.6 °F 100% 30.31 in 3.0 mi Calm Calm - N/A   Partly Cloudy
8:35 AM 39.2 °F - 39.2 °F 100% 30.32 in 8.0 mi North - - N/A   Scattered Clouds
8:55 AM 37.4 °F - 37.4 °F 100% 30.32 in 5.0 mi Calm Calm - N/A   Mostly Cloudy
9:15 AM 41.0 °F - 41.0 °F 100% 30.32 in 7.0 mi Calm Calm - N/A   Overcast
9:35 AM 41.0 °F - 41.0 °F 100% 30.32 in 10.0 mi Calm Calm - N/A   Overcast
9:55 AM 42.8 °F - 42.8 °F 100% 30.32 in 10.0 mi Calm Calm - N/A   Overcast
10:15 AM 44.6 °F - 44.6 °F 100% 30.33 in 10.0 mi Calm Calm - N/A   Overcast
10:35 AM 44.6 °F - 44.6 °F 100% 30.33 in 10.0 mi Calm Calm - N/A   Overcast
10:55 AM 44.6 °F - 44.6 °F 100% 30.33 in 10.0 mi Calm Calm - N/A   Mostly Cloudy
11:15 AM 46.4 °F - 41.0 °F 81% 30.33 in 10.0 mi Calm Calm - N/A   Mostly Cloudy
11:35 AM 46.4 °F 45.2 °F 41.0 °F 81% 30.33 in 10.0 mi West 3.5 mph - N/A   Mostly Cloudy
11:55 AM 46.4 °F - 41.0 °F 81% 30.33 in 10.0 mi Calm Calm - N/A   Overcast
12:15 PM 46.4 °F 44.3 °F 42.8 °F 87% 30.32 in 10.0 mi North 4.6 mph - N/A   Overcast
12:35 PM 46.4 °F - 44.6 °F 93% 30.31 in 10.0 mi North - - N/A   Mostly Cloudy
12:55 PM 46.4 °F 44.3 °F 42.8 °F 87% 30.31 in 10.0 mi North 4.6 mph - N/A   Mostly Cloudy
1:15 PM 46.4 °F - 44.6 °F 93% 30.31 in 10.0 mi Calm Calm - N/A   Clear
1:35 PM 46.4 °F 45.2 °F 42.8 °F 87% 30.30 in 10.0 mi ENE 3.5 mph - N/A   Mostly Cloudy
1:55 PM 46.4 °F 45.2 °F 42.8 °F 87% 30.30 in 10.0 mi North 3.5 mph - N/A   Mostly Cloudy
2:15 PM 46.4 °F 44.3 °F 42.8 °F 87% 30.28 in 10.0 mi North 4.6 mph - N/A   Scattered Clouds
2:35 PM 46.4 °F 44.3 °F 42.8 °F 87% 30.28 in 10.0 mi North 4.6 mph - N/A   Clear
2:55 PM 46.4 °F 45.2 °F 42.8 °F 87% 30.27 in 10.0 mi NNE 3.5 mph - N/A   Clear
3:15 PM 46.4 °F - 41.0 °F 81% 30.26 in 10.0 mi Calm Calm - N/A   Clear
3:35 PM 46.4 °F 45.2 °F 41.0 °F 81% 30.25 in 10.0 mi North 3.5 mph - N/A   Clear
3:55 PM 46.4 °F 45.2 °F 41.0 °F 81% 30.24 in 10.0 mi NNW 3.5 mph - N/A   Clear
4:15 PM 46.4 °F - 41.0 °F 81% 30.24 in 10.0 mi North - - N/A   Clear
4:35 PM 44.6 °F - 41.0 °F 87% 30.23 in 10.0 mi Calm Calm - N/A   Clear
4:55 PM 44.6 °F - 41.0 °F 87% 30.22 in 10.0 mi Calm Calm - N/A   Clear
5:15 PM 44.6 °F - 41.0 °F 87% 30.21 in 10.0 mi Calm Calm - N/A   Clear
5:35 PM 44.6 °F - 41.0 °F 87% 30.21 in 10.0 mi Calm Calm - N/A   Clear
5:55 PM 42.8 °F - 41.0 °F 93% 30.21 in 10.0 mi Calm Calm - N/A   Clear
6:15 PM 41.0 °F - 39.2 °F 93% 30.20 in 10.0 mi Calm Calm - N/A   Clear
6:35 PM 42.8 °F 41.1 °F 39.2 °F 87% 30.19 in 10.0 mi NNE 3.5 mph - N/A   Clear
6:55 PM 44.6 °F - 41.0 °F 87% 30.18 in 10.0 mi Calm Calm - N/A   Clear
7:15 PM 44.6 °F 43.1 °F 39.2 °F 81% 30.18 in 10.0 mi North 3.5 mph - N/A   Clear
7:35 PM 44.6 °F 41.4 °F 41.0 °F 87% 30.16 in 10.0 mi North 5.8 mph - N/A   Clear
7:55 PM 44.6 °F 42.2 °F 41.0 °F 87% 30.15 in 10.0 mi NNE 4.6 mph - N/A   Clear
8:15 PM 46.4 °F 45.2 °F 41.0 °F 81% 30.13 in 10.0 mi NE 3.5 mph - N/A   Clear
8:35 PM 46.4 °F - 39.2 °F 76% 30.13 in 10.0 mi Calm Calm - N/A   Clear
8:55 PM 46.4 °F 45.2 °F 39.2 °F 76% 30.12 in 10.0 mi North 3.5 mph - N/A   Clear
9:15 PM 48.2 °F - 39.2 °F 71% 30.11 in 10.0 mi NE 4.6 mph - N/A   Clear
9:55 PM 46.4 °F 43.5 °F 39.2 °F 76% 30.09 in 10.0 mi NE 5.8 mph - N/A   Clear
10:15 PM 44.6 °F - 39.2 °F 81% 30.09 in 10.0 mi Calm Calm - N/A   Clear
10:35 PM 44.6 °F 42.2 °F 39.2 °F 81% 30.08 in 10.0 mi ENE 4.6 mph - N/A   Clear
10:55 PM 44.6 °F - 39.2 °F 81% 30.07 in 10.0 mi Calm Calm - N/A   Clear
11:15 PM 44.6 °F - 39.2 °F 81% 30.08 in 10.0 mi Calm Calm - N/A   Clear
11:35 PM 44.6 °F - 39.2 °F 81% 30.07 in 10.0 mi Calm Calm - N/A   Clear
11:55 PM 41.0 °F - 39.2 °F 93% 30.06 in 10.0 mi Calm Calm - N/A   Clear